| time (UTC) | temp F | wind direction | speed MPH | gust MPH | rain 1hr in | rain 24hr in | rain mn in | humidity % | barometer mb |
| 20260503225036 | 55 | 133 | 6.0 | 16.0 | 0.00 | 0.00 | 0.00 | 62 | 1003.5 |
| 20260503224032 | 67 | 144 | 5.0 | 15.0 | 0.00 | 0.00 | 0.00 | 42 | 1003.5 |
| 20260503223028 | 70 | 250 | 6.0 | 14.0 | 0.00 | 0.00 | 0.00 | 36 | 1003.4 |
| 20260503222045 | 70 | 258 | 8.0 | 17.0 | 0.00 | 0.00 | 0.00 | 36 | 1003.3 |
| 20260503221022 | 70 | 260 | 7.0 | 19.0 | 0.00 | 0.00 | 0.00 | 38 | 1003.4 |
| 20260503220018 | 70 | 252 | 6.0 | 15.0 | 0.00 | 0.00 | 0.00 | 39 | 1003.3 |
| 20260503215035 | 68 | 258 | 7.0 | 16.0 | 0.00 | 0.00 | 0.00 | 41 | 1003.5 |
| 20260503214032 | 66 | 217 | 4.0 | 9.0 | 0.00 | 0.00 | 0.00 | 46 | 1003.5 |
| 20260503213029 | 57 | 159 | 4.0 | 15.0 | 0.00 | 0.00 | 0.00 | 62 | 1003.7 |
| 20260503212025 | 53 | 136 | 5.0 | 11.0 | 0.00 | 0.00 | 0.00 | 68 | 1004.0 |
| 20260503211043 | 52 | 137 | 5.0 | 16.0 | 0.00 | 0.00 | 0.00 | 70 | 1004.0 |
| 20260503210019 | 52 | 127 | 6.0 | 17.0 | 0.00 | 0.00 | 0.00 | 69 | 1004.2 |
| 20260503205035 | 53 | 153 | 5.0 | 11.0 | 0.00 | 0.00 | 0.00 | 68 | 1004.5 |
| 20260503204034 | 53 | 150 | 6.0 | 13.0 | 0.00 | 0.00 | 0.00 | 68 | 1004.6 |
| 20260503203029 | 53 | 156 | 6.0 | 11.0 | 0.00 | 0.00 | 0.00 | 68 | 1004.7 |
| 20260503202025 | 53 | 146 | 6.0 | 14.0 | 0.00 | 0.00 | 0.00 | 66 | 1004.8 |
| 20260503201022 | 56 | 172 | 6.0 | 13.0 | 0.00 | 0.00 | 0.00 | 60 | 1005.0 |
| 20260503200019 | 63 | 158 | 5.0 | 11.0 | 0.00 | 0.00 | 0.00 | 47 | 1005.3 |
| 20260503195035 | 68 | 231 | 6.0 | 14.0 | 0.00 | 0.00 | 0.00 | 36 | 1005.4 |
| 20260503194024 | 69 | 255 | 8.0 | 27.0 | 0.00 | 0.00 | 0.00 | 37 | 1005.4 |
| 20260503193017 | 68 | 238 | 7.0 | 22.0 | 0.00 | 0.00 | 0.00 | 38 | 1005.5 |
| 20260503192029 | 68 | 220 | 7.0 | 22.0 | 0.00 | 0.00 | 0.00 | 39 | 1005.6 |
| 20260503191025 | 67 | 222 | 8.0 | 17.0 | 0.00 | 0.00 | 0.00 | 39 | 1005.9 |
| 20260503190021 | 68 | 225 | 7.0 | 18.0 | 0.00 | 0.00 | 0.00 | 39 | 1005.9 |
| 20260503185017 | 67 | 240 | 8.0 | 17.0 | 0.00 | 0.00 | 0.00 | 39 | 1006.0 |
| 20260503184034 | 67 | 247 | 6.0 | 19.0 | 0.00 | 0.00 | 0.00 | 40 | 1006.3 |
| 20260503183031 | 66 | 250 | 7.0 | 22.0 | 0.00 | 0.00 | 0.00 | 41 | 1006.4 |
| 20260503182028 | 66 | 228 | 8.0 | 18.0 | 0.00 | 0.00 | 0.00 | 42 | 1006.5 |
| 20260503181044 | 65 | 240 | 8.0 | 16.0 | 0.00 | 0.00 | 0.00 | 44 | 1006.6 |
| 20260503180021 | 64 | 253 | 10.0 | 23.0 | 0.00 | 0.00 | 0.00 | 46 | 1006.9 |
| 20260503175018 | 64 | 248 | 8.0 | 21.0 | 0.00 | 0.00 | 0.00 | 46 | 1006.9 |
| 20260503174034 | 65 | 232 | 7.0 | 16.0 | 0.00 | 0.00 | 0.00 | 46 | 1007.0 |
| 20260503173031 | 64 | 254 | 7.0 | 19.0 | 0.00 | 0.00 | 0.00 | 47 | 1007.1 |
| 20260503172027 | 64 | 242 | 8.0 | 17.0 | 0.00 | 0.00 | 0.00 | 49 | 1007.2 |
| 20260503171045 | 63 | 245 | 8.0 | 25.0 | 0.00 | 0.00 | 0.00 | 50 | 1007.3 |
| 20260503131024 | 51 | 264 | 5.0 | 13.0 | 0.00 | 0.00 | 0.00 | 52 | 1009.0 |
| 20260503081042 | 47 | 256 | 3.0 | 8.0 | 0.00 | 0.00 | 0.00 | 58 | 1010.8 |
| 20260503072043 | 44 | 266 | 3.0 | 6.0 | 0.00 | 0.00 | 0.00 | 67 | 1011.0 |
| 20260503071020 | 43 | 264 | 3.0 | 6.0 | 0.00 | 0.00 | 0.00 | 69 | 1011.1 |
| 20260503055032 | 40 | 214 | 2.0 | 6.0 | 0.00 | 0.00 | 0.00 | 82 | 1012.0 |
| 20260503054029 | 40 | 229 | 2.0 | 4.0 | 0.00 | 0.00 | 0.00 | 82 | 1012.1 |
| 20260503053025 | 40 | 213 | 2.0 | 6.0 | 0.00 | 0.00 | 0.00 | 83 | 1012.3 |
| 20260503052023 | 40 | 199 | 2.0 | 7.0 | 0.00 | 0.00 | 0.00 | 84 | 1012.4 |
| 20260503051018 | 40 | 193 | 1.0 | 4.0 | 0.00 | 0.00 | 0.00 | 85 | 1012.5 |
| 20260503050035 | 40 | 199 | 2.0 | 7.0 | 0.00 | 0.00 | 0.00 | 85 | 1012.5 |
| 20260503045051 | 40 | 194 | 2.0 | 6.0 | 0.00 | 0.00 | 0.00 | 86 | 1012.5 |
| 20260503044028 | 40 | 196 | 2.0 | 7.0 | 0.00 | 0.00 | 0.00 | 86 | 1012.7 |
| 20260503043026 | 40 | 207 | 2.0 | 4.0 | 0.00 | 0.00 | 0.00 | 85 | 1012.8 |
| 20260503042042 | 40 | 194 | 1.0 | 4.0 | 0.00 | 0.00 | 0.00 | 83 | 1012.8 |
| 20260503041018 | 40 | 201 | 2.0 | 7.0 | 0.00 | 0.00 | 0.00 | 82 | 1013.0 |
| 20260503040055 | 40 | 198 | 3.0 | 7.0 | 0.00 | 0.00 | 0.00 | 81 | 1013.2 |
| 20260503035032 | 40 | 198 | 3.0 | 7.0 | 0.00 | 0.00 | 0.00 | 80 | 1013.3 |
| 20260503034028 | 40 | 198 | 3.0 | 8.0 | 0.00 | 0.00 | 0.00 | 78 | 1013.5 |
| 20260503033025 | 40 | 189 | 3.0 | 8.0 | 0.00 | 0.00 | 0.00 | 76 | 1013.6 |
| 20260503032021 | 41 | 190 | 4.0 | 13.0 | 0.00 | 0.00 | 0.00 | 75 | 1013.8 |
| 20260503031018 | 41 | 206 | 4.0 | 13.0 | 0.00 | 0.00 | 0.00 | 73 | 1013.9 |
| 20260503030036 | 41 | 196 | 4.0 | 11.0 | 0.00 | 0.00 | 0.00 | 72 | 1014.0 |
| 20260503025032 | 41 | 196 | 3.0 | 9.0 | 0.00 | 0.00 | 0.00 | 72 | 1014.2 |
| 20260503024028 | 41 | 200 | 4.0 | 13.0 | 0.00 | 0.00 | 0.00 | 70 | 1014.2 |
| 20260503023025 | 41 | 203 | 4.0 | 11.0 | 0.00 | 0.00 | 0.00 | 70 | 1014.3 |
| 20260503022042 | 41 | 194 | 4.0 | 17.0 | 0.00 | 0.00 | 0.00 | 69 | 1014.5 |
| 20260503021018 | 41 | 178 | 4.0 | 10.0 | 0.00 | 0.00 | 0.00 | 69 | 1014.5 |
| 20260503020035 | 41 | 180 | 4.0 | 13.0 | 0.00 | 0.00 | 0.00 | 70 | 1014.3 |
| 20260503015031 | 41 | 182 | 4.0 | 13.0 | 0.00 | 0.00 | 0.00 | 70 | 1014.3 |
| 20260503014028 | 41 | 178 | 5.0 | 17.0 | 0.00 | 0.00 | 0.00 | 70 | 1014.3 |
| 20260503013026 | 41 | 178 | 5.0 | 13.0 | 0.00 | 0.00 | 0.00 | 70 | 1014.3 |
| 20260503012022 | 41 | 199 | 5.0 | 15.0 | 0.00 | 0.00 | 0.00 | 69 | 1014.5 |
| 20260503011018 | 41 | 183 | 5.0 | 13.0 | 0.00 | 0.00 | 0.00 | 69 | 1014.5 |
| 20260503010035 | 41 | 168 | 4.0 | 10.0 | 0.00 | 0.00 | 0.00 | 69 | 1014.5 |
| 20260503005033 | 42 | 183 | 4.0 | 14.0 | 0.00 | 0.00 | 0.00 | 69 | 1014.5 |
| 20260503004028 | 42 | 175 | 4.0 | 14.0 | 0.00 | 0.00 | 0.00 | 68 | 1014.5 |
| 20260503003025 | 42 | 191 | 5.0 | 13.0 | 0.00 | 0.00 | 0.00 | 64 | 1014.5 |
| 20260503002022 | 43 | 187 | 5.0 | 13.0 | 0.00 | 0.00 | 0.00 | 64 | 1014.6 |
| 20260503001020 | 44 | 188 | 5.0 | 10.0 | 0.00 | 0.00 | 0.00 | 64 | 1014.7 |
| 20260503000035 | 44 | 193 | 4.0 | 13.0 | 0.00 | 0.00 | 0.00 | 60 | 1014.9 |
| 20260502235032 | 44 | 199 | 5.0 | 13.0 | 0.00 | 0.00 | 0.00 | 60 | 1014.9 |
| 20260502234110 | 45 | 202 | 5.0 | 18.0 | 0.00 | 0.00 | 0.00 | 59 | 1015.0 |
| 20260502233025 | 46 | 183 | 5.0 | 16.0 | 0.00 | 0.00 | 0.00 | 58 | 1015.0 |
| 20260502232022 | 46 | 178 | 5.0 | 14.0 | 0.00 | 0.00 | 0.00 | 59 | 1015.1 |
| 20260502231019 | 46 | 186 | 5.0 | 13.0 | 0.00 | 0.00 | 0.00 | 59 | 1015.2 |
| 20260502230036 | 47 | 186 | 4.0 | 15.0 | 0.00 | 0.00 | 0.00 | 61 | 1015.3 |